Wind_Speed
15 16 19 22 22 20 18 18 19 21 20 19 19 20 18 19 20 18 18 19 19 20 20 19 19 19 19 19 19 20 18 17 17 15 15 14 14 16
13 14 15 13 16 18 19 17 19 21 22 21 17 22 19 17 20 22 22 22 22 22 20 20 20 19 20 20 21 21 20 19 17 16 15 16 17 18
15 15 15 14 16 17 16 15 14 15 23 20 21 21 22 24 21 20 24 24 24 24 23 22 22 22 22 21 22 22 22 22 20 19 20 20 21 21
15 15 18 17 19 19 19 18 19 22 20 23 27 25 23 27 28 24 24 25 28 27 28 27 27 26 26 25 25 25 25 24 24 23 23 23 22 22
11 12 14 15 18 22 22 22 22 22 24 26 28 31 27 28 30 30 29 27 26 30 32 31 30 30 30 29 28 28 28 28 28 28 28 28 27 26
9 7 9 12 14 17 20 22 23 23 20 19 25 26 34 22 24 31 30 29 33 33 32 33 35 35 34 34 33 32 32 32 32 32 32 32 31 31
13 12 12 11 12 14 18 20 20 22 22 21 21 26 24 28 26 26 32 29 37 38 38 36 33 33 33 33 33 34 36 37 38 37 36 34 33 32
17 15 12 12 13 13 14 17 18 21 23 20 23 27 28 25 23 22 31 29 29 39 40 36 38 36 36 35 36 35 34 34 34 33 32 32 32 31
20 18 16 13 13 13 14 14 15 17 20 24 26 22 25 26 25 26 31 33 30 30 37 36 36 37 39 39 39 39 37 38 39 39 37 36 36 35
27 24 21 18 16 14 14 13 14 15 18 19 22 22 27 24 28 31 28 26 35 36 32 35 37 37 38 40 41 41 40 40 41 42 40 37 34 33
33 30 27 24 21 18 16 16 15 15 16 18 17 26 26 31 30 34 32 34 27 32 34 30 29 29 32 35 39 39 38 37 41 44 47 41 36 31
34 35 34 29 25 21 20 19 18 18 18 19 19 20 22 25 27 27 30 31 29 23 31 34 35 31 31 32 34 38 41 34 31 33 35 41 39 36
40 38 35 31 30 26 22 20 21 23 22 22 21 21 21 23 24 25 30 39 35 30 33 37 38 35 31 32 33 37 36 37 36 32 35 42 39 33
38 41 42 35 31 31 27 25 24 25 25 28 27 25 24 24 23 25 25 29 32 34 34 35 34 30 30 30 30 31 30 35 43 36 40 43 39 32
30 28 45 40 34 32 31 29 28 27 28 28 29 31 28 26 27 27 27 30 37 40 41 37 39 35 35 34 35 29 29 28 35 34 34 33 34 34
34 31 34 40 35 35 34 31 29 29 31 31 30 30 29 31 31 32 33 32 33 38 40 40 38 39 42 41 39 38 38 35 36 36 37 38 39 40
32 30 33 43 41 37 36 38 37 35 34 34 33 32 32 33 36 38 38 38 39 40 40 38 41 41 43 44 43 43 42 42 43 45 43 42 42 42
25 27 24 34 42 46 39 39 41 42 40 39 34 34 36 36 39 39 43 42 41 42 42 42 42 42 44 44 44 44 43 43 45 46 45 44 44 46
29 30 28 30 32 32 36 41 42 45 49 43 34 33 35 32 30 36 40 44 43 45 46 45 44 44 45 44 45 43 43 43 46 46 46 46 47 51
29 29 29 29 30 23 22 36 30 29 29 21 28 33 32 34 36 34 32 33 40 44 46 45 45 47 49 48 48 47 47 49 50 51 52 54 52 54
28 29 26 25 25 26 26 21 19 19 20 25 29 30 29 30 33 33 34 33 37 39 39 40 45 53 54 50 51 53 52 52 53 58 60 57 53 50
25 25 30 29 31 26 25 25 26 28 29 32 33 33 32 31 30 32 29 32 35 37 39 39 41 40 36 41 45 40 38 41 44 43 45 45 47 54
27 27 29 30 30 29 29 29 30 31 32 31 32 31 31 30 29 28 30 27 30 30 30 30 33 32 33 39 41 43 41 40 37 41 43 44 43 47
Wind_Direction
270 259 260 263 248 248 258 249 248 241 235 239 242 237 228 228 225 223 222 220 217 217 220 221 224 225 224 226 225 230 239 244 240 232 229 234 236 243
262 261 267 252 237 243 248 256 253 246 233 241 244 240 241 242 236 226 229 226 224 223 221 226 228 229 230 230 228 231 237 239 238 236 236 236 239 244
253 253 255 254 248 248 254 249 251 249 241 246 245 246 244 240 239 234 234 236 234 231 228 229 231 231 230 235 236 238 240 242 240 239 240 242 245 250
259 253 250 251 254 250 251 257 256 253 252 255 253 244 240 240 236 235 235 236 235 235 234 231 231 234 236 235 237 240 244 247 249 248 248 249 251 252
268 271 269 263 259 254 256 259 255 257 260 260 261 247 228 235 235 233 240 235 238 241 239 236 235 235 238 239 241 244 246 248 247 247 250 253 256 256
271 271 266 260 259 258 258 255 256 253 257 278 256 238 234 240 241 240 239 239 237 237 239 236 237 238 240 242 242 244 245 245 247 248 251 254 255 257
270 266 264 268 270 259 256 254 256 254 256 276 248 233 229 227 248 248 244 244 228 230 233 237 237 238 238 239 241 243 244 246 247 249 251 253 253 254
275 273 273 275 273 273 269 257 254 258 266 255 271 235 242 243 247 250 240 243 245 242 237 238 237 240 243 244 245 246 248 249 250 250 249 251 253 252
274 271 265 259 259 257 264 271 263 260 266 256 265 251 233 242 255 259 242 238 246 236 249 261 239 238 244 247 248 248 249 251 252 250 248 251 253 252
271 270 265 258 257 255 248 255 263 267 258 253 259 258 251 246 255 253 256 258 254 242 244 254 257 250 251 247 246 245 250 252 252 250 248 248 248 251
270 266 264 264 255 255 256 250 247 245 255 257 268 248 246 257 242 262 260 265 242 231 244 244 244 254 261 258 252 255 257 261 264 268 257 240 237 247
269 266 268 264 260 256 252 252 250 249 246 243 251 256 252 256 250 256 251 255 253 239 238 242 245 255 256 257 248 250 251 257 262 265 258 243 237 246
262 264 262 264 266 260 260 259 257 258 255 255 249 250 257 262 260 258 243 250 247 240 247 248 244 251 246 250 258 250 256 255 259 251 252 245 240 242
264 260 260 256 260 264 262 257 262 264 262 261 263 262 256 256 259 259 252 236 239 241 247 252 245 243 241 247 246 251 251 258 257 253 252 250 246 251
287 264 256 247 248 253 250 250 248 255 265 262 260 260 263 265 265 263 259 249 238 241 244 245 244 247 249 247 243 255 255 256 251 255 243 254 254 256
295 281 261 238 245 246 245 243 247 248 251 256 260 259 260 259 259 261 263 259 256 252 249 246 251 252 245 251 255 260 257 252 255 259 256 257 261 261
291 276 272 233 239 240 244 251 251 252 251 254 254 258 263 260 259 255 252 253 254 254 256 256 259 257 255 253 254 256 257 258 261 262 260 262 266 267
285 287 274 240 249 251 248 261 256 253 252 252 252 259 263 262 259 257 251 251 251 253 256 259 261 260 259 260 261 260 259 261 264 266 267 268 269 270
281 281 270 268 267 261 268 263 255 249 257 249 248 264 262 268 273 266 255 250 253 255 256 258 258 259 259 258 258 258 259 260 262 263 264 264 264 264
273 272 269 273 273 279 285 250 236 243 237 245 259 265 267 270 268 269 263 268 264 260 262 260 260 261 260 258 259 259 260 262 261 261 262 262 263 265
277 271 268 271 278 279 277 278 292 285 267 264 265 265 265 263 262 260 263 264 258 263 264 265 266 262 262 263 264 264 263 266 269 265 259 259 261 260
273 275 268 266 275 268 262 259 258 252 258 263 266 268 267 265 264 260 267 264 261 260 266 267 270 269 274 267 267 266 270 275 269 269 273 273 266 262
266 264 266 267 269 271 270 267 264 262 262 260 259 258 260 258 260 261 260 260 263 265 264 269 272 274 273 265 263 265 267 267 263 263 271 270 266 264
Height
5889 5890 5890 5890 5891 5893 5895 5896 5897 5898 5900 5901 5902 5903 5905 5907 5910 5912 5914 5917 5919 5920 5923 5925 5927 5929 5930 5933 5935 5937 5939 5941 5942 5943 5944 5945 5947 5949
5885 5886 5886 5885 5887 5890 5890 5891 5892 5893 5896 5898 5899 5900 5903 5905 5907 5909 5911 5913 5916 5918 5920 5922 5924 5926 5928 5931 5932 5934 5936 5938 5939 5940 5941 5942 5943 5944
5880 5881 5882 5883 5884 5885 5887 5887 5888 5890 5891 5892 5894 5896 5899 5901 5903 5905 5907 5910 5912 5915 5917 5919 5921 5922 5924 5927 5929 5931 5932 5934 5936 5937 5938 5938 5939 5940
5877 5877 5878 5879 5881 5881 5882 5883 5884 5885 5887 5888 5889 5890 5892 5894 5898 5900 5902 5904 5907 5910 5912 5914 5917 5918 5920 5922 5924 5926 5928 5930 5931 5932 5933 5934 5934 5934
5873 5874 5874 5875 5875 5876 5877 5878 5878 5879 5880 5881 5881 5883 5885 5887 5890 5894 5895 5898 5901 5903 5907 5909 5911 5913 5915 5917 5920 5921 5923 5924 5925 5926 5928 5929 5929 5930
5870 5870 5870 5869 5869 5870 5871 5872 5872 5873 5873 5873 5870 5875 5879 5881 5884 5886 5889 5892 5896 5896 5898 5901 5903 5905 5909 5911 5912 5914 5916 5917 5919 5920 5922 5923 5924 5924
5865 5865 5865 5864 5864 5864 5864 5865 5866 5866 5867 5867 5868 5870 5873 5877 5878 5878 5881 5883 5887 5889 5891 5895 5897 5899 5900 5902 5903 5906 5908 5909 5910 5912 5913 5915 5916 5917
5864 5862 5861 5860 5860 5860 5860 5860 5861 5861 5862 5864 5862 5862 5866 5870 5871 5871 5875 5876 5879 5881 5885 5887 5889 5892 5894 5896 5897 5899 5900 5902 5904 5905 5907 5909 5910 5910
5860 5859 5858 5856 5855 5855 5855 5856 5856 5856 5856 5857 5858 5859 5861 5864 5866 5866 5866 5869 5871 5872 5875 5876 5880 5883 5885 5887 5889 5891 5892 5893 5896 5897 5898 5900 5901 5903
5855 5855 5854 5853 5852 5850 5849 5849 5850 5851 5851 5851 5852 5853 5855 5858 5859 5860 5861 5862 5863 5864 5866 5871 5872 5874 5876 5879 5880 5882 5884 5885 5887 5888 5890 5891 5893 5894
5850 5850 5849 5848 5846 5846 5845 5844 5843 5844 5845 5847 5847 5847 5848 5849 5851 5853 5854 5855 5853 5854 5859 5862 5864 5867 5867 5869 5871 5873 5875 5876 5878 5879 5879 5880 5884 5885
5842 5842 5843 5842 5841 5840 5839 5838 5838 5839 5838 5839 5840 5841 5842 5842 5842 5844 5846 5847 5849 5849 5851 5855 5856 5858 5858 5860 5862 5865 5866 5868 5868 5868 5869 5872 5873 5874
5831 5834 5834 5836 5836 5834 5833 5832 5832 5832 5831 5833 5832 5833 5834 5834 5835 5836 5837 5839 5841 5843 5844 5845 5845 5849 5850 5852 5853 5854 5857 5858 5860 5859 5861 5863 5862 5865
5825 5823 5825 5826 5827 5827 5827 5826 5825 5824 5825 5825 5825 5826 5827 5828 5828 5829 5828 5830 5834 5836 5837 5839 5840 5840 5841 5843 5844 5845 5846 5848 5850 5849 5849 5851 5853 5857
5814 5813 5813 5815 5816 5817 5818 5818 5818 5817 5817 5818 5818 5818 5820 5821 5821 5822 5823 5823 5824 5826 5828 5829 5831 5831 5833 5834 5835 5833 5835 5839 5840 5841 5839 5840 5845 5849
5804 5800 5799 5800 5802 5804 5806 5807 5809 5810 5809 5809 5809 5810 5812 5812 5813 5814 5814 5816 5817 5818 5819 5821 5822 5823 5825 5826 5828 5830 5831 5831 5831 5832 5833 5835 5837 5838
5793 5790 5786 5787 5792 5794 5796 5797 5798 5800 5800 5800 5800 5801 5801 5803 5802 5803 5804 5805 5807 5809 5810 5811 5814 5815 5817 5817 5818 5819 5821 5823 5823 5823 5825 5826 5827 5827
5785 5783 5781 5783 5785 5785 5786 5787 5787 5789 5789 5789 5789 5790 5790 5791 5791 5791 5792 5793 5794 5794 5796 5799 5801 5803 5805 5807 5809 5807 5808 5810 5811 5811 5813 5814 5815 5815
5777 5776 5775 5775 5774 5774 5774 5774 5774 5775 5774 5778 5778 5779 5779 5780 5780 5780 5780 5782 5784 5784 5784 5784 5787 5789 5791 5794 5794 5795 5796 5796 5795 5796 5799 5800 5801 5797
5769 5769 5767 5767 5766 5765 5764 5762 5759 5760 5761 5765 5769 5770 5770 5769 5770 5771 5771 5772 5772 5773 5772 5774 5776 5776 5776 5778 5781 5783 5784 5784 5783 5783 5783 5783 5785 5784
5761 5761 5761 5760 5760 5759 5759 5756 5755 5754 5756 5759 5760 5759 5759 5760 5759 5759 5759 5759 5761 5762 5762 5761 5762 5760 5761 5765 5768 5768 5767 5767 5766 5766 5765 5767 5770 5770
5754 5753 5753 5752 5752 5753 5752 5751 5750 5750 5751 5752 5751 5750 5750 5750 5750 5750 5751 5749 5749 5750 5751 5751 5749 5748 5748 5750 5751 5749 5750 5751 5752 5751 5752 5752 5753 5754
5746 5745 5745 5744 5743 5743 5743 5742 5743 5742 5742 5741 5741 5740 5739 5738 5738 5738 5738 5738 5738 5738 5738 5737 5737 5736 5736 5736 5737 5736 5735 5736 5737 5738 5740 5739 5739 5740